Terminal Aerodrome Forecast
Issued by NWS

Home | Current Version | Previous Version | Text Only | Print | Product List | Glossary On
Versions: 1 2 3 4 5 6 7 8 9 10 11 12 13 14 15 16 17 18 19 20 21 22 23 24
000
FTUS41 KBTV 191727
TAFRUT
TAF
KRUT 191727Z 1918/2018 33010KT P6SM OVC020
     FM200400 VRB04KT P6SM OVC020
     FM201400 13005KT P6SM BKN030
      AMD LTD TO CLD AND VIS=

USA.gov is the U.S. government's official web portal to all federal, state and local government web resources and services.